Lexington Weather

Lexington, Massachusetts, USA

78°F
8/3/2020 7:58am 
  • Lexington Conditions: Clear
  • Temperature: 77.7°F / 25.4°CWarmer 1.2°F than last hour.
  • Dew Point: 72.9°FDecreased 1.9°Fsince last hour.
  • Relative Humidity: 85%Decreased 10.0% since last hour.
  • Wind: Wind from SW SW 3 mph, 10-min avg: 3 mph, gust: 10 mph
  • Barometer: 29.85 in Steady
  • Visibility: 10 miles
  • Rain Today: 0.00 in
  •   
Southeast Middlesex County - Tropical Storm Watch - Tropical Cyclone Statement
 - SEE ALL NEARBY ALERTS -

Regional Weather Roundup
for Boston / Norton, MA

        
000
ASUS41 KBOX 310404
RWRBOX

REGIONAL WEATHER ROUNDUP
NATIONAL WEATHER SERVICE BOSTON/NORTON MA
1200 AM EDT FRI JUL 31 2020

NOTE:  "FAIR" INDICATES FEW OR NO CLOUDS BELOW 12,000 FEET WITH NO 
SIGNIFICANT WEATHER AND/OR OBSTRUCTIONS TO VISIBILITY.

MAZALL-310500-
EASTERN MASSACHUSETTS
  
CITY           SKY/WX    TMP DP  RH WIND       PRES   REMARKS
BOSTON         MOCLDY    79  61  53 NW12      29.83R                  
BEVERLY        PTCLDY    72  66  81 W3        29.82S                  
LAWRENCE       PTCLDY    73  67  81 W3        29.84S                  
BEDFORD        MOCLDY    73  65  75 NW3       29.82R                  
BLUE HILL      NOT AVBL                                               
NORWOOD        MOCLDY    73  66  78 CALM      29.82F                  
MARSHFIELD     MOCLDY    72  68  88 CALM      29.81F                  
PLYMOUTH       MOCLDY    75  71  87 CALM      29.83F                  
TAUNTON        MOCLDY    73  70  90 CALM      29.82F                  
NEW BEDFORD    CLOUDY    75  74  96 S3        29.82F                  
$$

MAZALL-310500-
CAPE COD AND THE ISLANDS
  
CITY           SKY/WX    TMP DP  RH WIND       PRES   REMARKS
FALMOUTH       CLOUDY    75  75 100 SW6       29.83F FOG              
HYANNIS        CLOUDY    77  76  96 SW6       29.81F                  
CHATHAM        CLOUDY    78  75  90 SW7       29.83F                  
PROVINCETOWN   MOCLDY    73  68  84 S3        29.83S                  
NANTUCKET      CLOUDY    74  73  97 SW7       29.84F FOG              
MARTHAS VNYRD  CLOUDY    77  76  96 SW7       29.84S FOG              
$$
 
MAZALL-310500-
CENTRAL AND WESTERN MASSACHUSETTS
  
CITY           SKY/WX    TMP DP  RH WIND       PRES   REMARKS
WORCESTER      MOCLDY    72  62  71 W8        29.87F                  
FITCHBURG      MOCLDY    73  63  70 NW7       29.85R                  
ORANGE         MOCLDY    69  67  93 NE3       29.86F                  
SPRINGFIELD    CLOUDY    71  66  84 CALM      29.84S                  
WESTFIELD      MOCLDY    72  68  87 CALM      29.85S                  
NORTH ADAMS    PTCLDY    65  63  93 CALM      29.87F                  
PITTSFIELD     MOCLDY    69  64  84 SW5       29.88F                  
$$
 
RIZALL-310500-
RHODE ISLAND
  
CITY           SKY/WX    TMP DP  RH WIND       PRES   REMARKS
PROVIDENCE     CLOUDY    77  69  76 W6        29.84R                  
NEWPORT        CLOUDY    75  71  87 CALM      29.84R                  
BLOCK ISLAND   CLOUDY    75  74  96 W8        29.85S FOG              
SMITHFIELD     CLOUDY    73  66  78 NW5       29.86R                  
WESTERLY       CLOUDY    75  69  81 CALM      29.84S                  
$$
 
CTZALL-310500-
CONNECTICUT
  
CITY           SKY/WX    TMP DP  RH WIND       PRES   REMARKS
BRADLEY INTL   CLOUDY    74  65  73 CALM      29.84S                  
HARTFORD       CLOUDY    78  66  66 NE6       29.84S                  
BRIDGEPORT     MOCLDY    78  71  79 N6        29.84R                  
DANBURY        MOCLDY    73  69  87 CALM      29.87F                  
GROTON         CLOUDY    74  70  87 CALM      29.83S                  
NEW HAVEN      CLOUDY    76  74  93 CALM      29.84R                  
CHESTER        FAIR      72  70  94 CALM      29.86R                  
MERIDEN        CLOUDY    77  65  66 NW3       29.84S                  
WILLIMANTIC    CLOUDY    72  67  84 CALM      29.86R                  
OXFORD         MOCLDY    73  67  81 N8        29.88S                  
$$

MEZ002-015-021-024-NHZ003-005-008-011-012-014-VTZ005-008-310500-
NORTHERN NEW ENGLAND
  
CITY           SKY/WX    TMP DP  RH WIND       PRES   REMARKS
PORTLAND ME    PTCLDY    72  63  73 W3        29.81F                  
BANGOR ME      MOCLDY    65  61  87 CALM      29.78F                  
CONCORD NH     PTCLDY    66  60  81 CALM      29.84F                  
MANCHESTER NH  PTCLDY    75  58  55 NW5       29.82S                  
NASHUA NH      PTCLDY    75  60  59 NW7       29.84S                  
PORTSMOUTH NH  PTCLDY    70  62  76 W6        29.81S                  
JAFFREY NH     PTCLDY    65  62  90 CALM      29.89S                  
KEENE NH       PTCLDY    65  64  97 CALM      29.86F                  
BURLINGTON VT  MOCLDY    68  62  81 E3        29.86S                  
MT. WASHINGTON PTCLDY    48  46  93 NW28        N/A                   
$$

NYZ052-076-310500-
EASTERN NEW YORK
  
CITY           SKY/WX    TMP DP  RH WIND       PRES   REMARKS
ALBANY         MOCLDY    65  61  87 W5        29.86F                  
NEW YORK CITY  CLOUDY    82  66  58 E6        29.83S                  
$$
 
ANZALL-310500-
MARINE OBSERVATIONS
  
STATION/POSITION TIME  TEMP    WIND        PRES    VSBY  WAVE
                       AIR SEA DIR/SP/G                  HT/PER
                 (UTC) (F)     (DEG/KT/KT) (MB)    (MI)  (FT/S)
BOSTON BUOY      0250   73 73  200/  4/  6 1008.4          1/ 8
BUZZARDS BAY     0300          260/ 11/ 11 1011.1S
NANTUCKET SOUND  0340      77  230/ 10/ 10 1009.5F
MASS BAY-STELLWA 0304   72     280/  6/  6 1007.4R  1 3/4  1/ 8
ISLE OF SHOALS   0300   72     190/  5/  6 1009.1R
S OF BLOCK IS    0326      77                N/A           3/ 6
$$

......................KEY.........................
  SKY/WX - SKY CONDITION/PRESENT WEATHER
  TMP    - TEMPERATURE IN FAHRENHEIT
  DWPT   - DEWPOINT IN FAHRENHEIT
  RH     - RELATIVE HUMIDITY IN PERCENT
  WIND   - DIRECTION AND SPEED IN MPH
  PRES   - MEAN SEA LEVEL PRESSURE IN INCHES OF HG
  WCI    - WIND CHILL INDEX
  VSB    - VISIBILITY IN MILES
  HX     - HEAT INDEX
  TC     - TEMPERATURE IN CELSIUS
  VRB    - VARIABLE WIND DIRECTION
  N/A    - NOT AVAILABLE
  
      

Other recent Regional Weather Roundups

Mon Aug 3, 7:04am

Mon Aug 3, 6:04am

Mon Aug 3, 5:04am

Mon Aug 3, 4:04am

Mon Aug 3, 3:04am

Mon Aug 3, 2:04am

Mon Aug 3, 1:04am

Mon Aug 3, 12:05am

Sun Aug 2, 11:04pm

Sun Aug 2, 10:04pm

Sun Aug 2, 9:04pm

Sun Aug 2, 8:04pm

Sun Aug 2, 7:04pm

Sun Aug 2, 6:04pm

Sun Aug 2, 5:04pm

Sun Aug 2, 4:05pm

Sun Aug 2, 3:04pm

Sun Aug 2, 2:05pm

Sun Aug 2, 1:04pm

Sun Aug 2, 12:04pm

Sun Aug 2, 11:04am

Sun Aug 2, 10:04am

Sun Aug 2, 9:05am

Sun Aug 2, 8:05am

Sun Aug 2, 7:04am

Sun Aug 2, 6:04am

Sun Aug 2, 5:04am

Sun Aug 2, 4:05am

Sun Aug 2, 3:04am

Sun Aug 2, 2:04am

Sun Aug 2, 1:04am

Sun Aug 2, 12:05am

Sat Aug 1, 11:04pm

Sat Aug 1, 10:04pm

Sat Aug 1, 9:04pm

Sat Aug 1, 8:05pm

Sat Aug 1, 7:04pm

Sat Aug 1, 6:04pm

Sat Aug 1, 5:05pm

Sat Aug 1, 4:05pm

Sat Aug 1, 3:04pm

Sat Aug 1, 2:04pm

Sat Aug 1, 1:04pm

Sat Aug 1, 12:04pm

Sat Aug 1, 11:05am

Sat Aug 1, 10:05am

Sat Aug 1, 9:04am

Sat Aug 1, 8:04am

Sat Aug 1, 7:04am

Sat Aug 1, 6:04am

Sat Aug 1, 5:04am

Sat Aug 1, 4:05am

Sat Aug 1, 3:04am

Sat Aug 1, 2:04am

Sat Aug 1, 1:04am

Sat Aug 1, 12:05am

Fri Jul 31, 11:05pm

Fri Jul 31, 10:04pm

Fri Jul 31, 9:04pm

Fri Jul 31, 8:05pm

Fri Jul 31, 7:05pm

Fri Jul 31, 6:04pm

Fri Jul 31, 5:04pm

Fri Jul 31, 4:05pm

Fri Jul 31, 3:04pm

Fri Jul 31, 2:05pm

Fri Jul 31, 1:04pm

Fri Jul 31, 12:04pm

Fri Jul 31, 11:04am

Fri Jul 31, 10:04am

Fri Jul 31, 9:04am

Fri Jul 31, 8:04am

Fri Jul 31, 7:04am

Fri Jul 31, 6:04am

Fri Jul 31, 5:04am

Fri Jul 31, 4:04am

Fri Jul 31, 3:04am

Fri Jul 31, 2:04am

Fri Jul 31, 1:05am

Thu Jul 30, 11:04pm

Thu Jul 30, 10:04pm

Thu Jul 30, 9:04pm

Thu Jul 30, 8:04pm

Thu Jul 30, 7:05pm

Thu Jul 30, 6:04pm

Thu Jul 30, 5:04pm

Thu Jul 30, 4:05pm

Thu Jul 30, 3:04pm

Thu Jul 30, 2:05pm

Thu Jul 30, 1:04pm

Thu Jul 30, 12:04pm

Thu Jul 30, 11:04am

Thu Jul 30, 10:05am

Thu Jul 30, 9:04am

Thu Jul 30, 8:04am

Thu Jul 30, 7:04am

Thu Jul 30, 6:04am

Thu Jul 30, 5:04am

Thu Jul 30, 4:04am

Thu Jul 30, 3:04am

Thu Jul 30, 2:04am

Thu Jul 30, 1:04am

Thu Jul 30, 12:04am

Wed Jul 29, 11:04pm

Wed Jul 29, 10:04pm

Wed Jul 29, 9:04pm

Wed Jul 29, 8:04pm

Wed Jul 29, 7:05pm

Wed Jul 29, 6:05pm

Wed Jul 29, 5:04pm

Wed Jul 29, 4:04pm

Wed Jul 29, 3:04pm

Wed Jul 29, 2:04pm

Wed Jul 29, 1:05pm

Wed Jul 29, 12:05pm

Wed Jul 29, 11:04am

Wed Jul 29, 10:04am

Wed Jul 29, 9:04am

Wed Jul 29, 8:04am

Wed Jul 29, 7:04am

Wed Jul 29, 6:04am

Wed Jul 29, 5:04am

Wed Jul 29, 4:04am

Wed Jul 29, 3:04am

Wed Jul 29, 2:04am

Wed Jul 29, 1:04am

Wed Jul 29, 12:05am

Tue Jul 28, 11:05pm

Tue Jul 28, 10:05pm

Tue Jul 28, 9:04pm

Tue Jul 28, 8:04pm

Tue Jul 28, 7:04pm

Tue Jul 28, 6:04pm

Tue Jul 28, 5:04pm

Tue Jul 28, 4:05pm

Tue Jul 28, 3:05pm

Tue Jul 28, 2:04pm

Tue Jul 28, 1:05pm

Tue Jul 28, 12:04pm

Tue Jul 28, 11:04am

Tue Jul 28, 10:04am

Tue Jul 28, 9:04am

Tue Jul 28, 8:04am

Tue Jul 28, 7:04am

Tue Jul 28, 6:04am

Tue Jul 28, 5:04am

Tue Jul 28, 4:04am

Tue Jul 28, 3:04am

Tue Jul 28, 2:04am

Tue Jul 28, 1:04am

Tue Jul 28, 12:05am

Mon Jul 27, 11:04pm

Mon Jul 27, 10:05pm

Mon Jul 27, 9:05pm

Mon Jul 27, 8:04pm

Mon Jul 27, 7:04pm

Mon Jul 27, 6:05pm

Mon Jul 27, 5:05pm

Mon Jul 27, 4:04pm

Mon Jul 27, 3:04pm

Mon Jul 27, 2:04pm

Mon Jul 27, 1:04pm

Mon Jul 27, 12:04pm

Mon Jul 27, 11:04am

Mon Jul 27, 10:04am

Mon Jul 27, 9:04am

Mon Jul 27, 8:04am

Meta data:

ID: 62eb8160-bc76-4d9b-9f50-1cd5652f81dd
Link: https://api.weather.gov/products/62eb8160-bc76-4d9b-9f50-1cd5652f81dd